| time (UTC) | temp F | wind direction | speed knots | gust knots | rain 1hr in | rain 24hr in | rain mn in | humidity % | barometer mb |
| 20260507154051 | 63 | 244 | 7.0 | 16.5 | 0.00 | 0.01 | 0.00 | 52 | 1014.6 |
| 20260507153521 | 63 | 246 | 8.7 | 13.0 | 0.00 | 0.01 | 0.00 | 53 | 1014.7 |
| 20260507153049 | 62 | 249 | 7.0 | 19.1 | 0.00 | 0.01 | 0.00 | 56 | 1014.7 |
| 20260507152529 | 62 | 223 | 8.7 | 19.1 | 0.00 | 0.01 | 0.00 | 54 | 1014.8 |
| 20260507152040 | 61 | 270 | 7.8 | 15.6 | 0.00 | 0.01 | 0.00 | 57 | 1014.8 |
| 20260507151530 | 60 | 223 | 7.0 | 15.6 | 0.00 | 0.01 | 0.00 | 57 | 1014.8 |
| 20260507151041 | 60 | 244 | 9.6 | 13.9 | 0.00 | 0.01 | 0.00 | 58 | 1014.9 |
| 20260507150521 | 59 | 215 | 7.8 | 14.8 | 0.00 | 0.01 | 0.00 | 62 | 1014.9 |
| 20260507150028 | 58 | 232 | 7.8 | 17.4 | 0.00 | 0.02 | 0.00 | 61 | 1015.0 |
| 20260507145518 | 58 | 252 | 10.4 | 17.4 | 0.00 | 0.02 | 0.00 | 62 | 1015.0 |
| 20260507145020 | 57 | 275 | 8.7 | 15.6 | 0.00 | 0.02 | 0.00 | 66 | 1015.0 |
| 20260507144531 | 57 | 192 | 8.7 | 15.6 | 0.00 | 0.02 | 0.00 | 66 | 1015.0 |
| 20260507144022 | 56 | 240 | 8.7 | 17.4 | 0.00 | 0.02 | 0.00 | 70 | 1015.0 |
| 20260507143553 | 55 | 233 | 8.7 | 17.4 | 0.00 | 0.02 | 0.00 | 71 | 1015.0 |
| 20260507143028 | 54 | 227 | 6.1 | 13.0 | 0.00 | 0.02 | 0.00 | 75 | 1015.1 |
| 20260507142518 | 53 | 227 | 8.7 | 13.0 | 0.00 | 0.02 | 0.00 | 77 | 1015.1 |
| 20260507142030 | 52 | 242 | 7.0 | 13.0 | 0.00 | 0.02 | 0.00 | 79 | 1015.2 |
| 20260507141531 | 51 | 253 | 7.0 | 13.9 | 0.00 | 0.02 | 0.00 | 81 | 1015.2 |
| 20260507141022 | 50 | 213 | 7.0 | 13.9 | 0.00 | 0.02 | 0.00 | 83 | 1015.4 |
| 20260507140525 | 49 | 252 | 9.6 | 13.9 | 0.00 | 0.02 | 0.00 | 84 | 1015.4 |
| 20260507140034 | 49 | 242 | 8.7 | 12.2 | 0.00 | 0.04 | 0.00 | 87 | 1015.4 |
| 20260507135546 | 48 | 237 | 7.0 | 12.2 | 0.00 | 0.04 | 0.00 | 90 | 1015.5 |
| 20260507135036 | 48 | 217 | 6.1 | 11.3 | 0.00 | 0.04 | 0.00 | 91 | 1015.6 |
| 20260507134517 | 47 | 225 | 7.0 | 12.2 | 0.00 | 0.04 | 0.00 | 93 | 1015.7 |
| 20260507134028 | 45 | 252 | 4.3 | 13.0 | 0.00 | 0.04 | 0.00 | 93 | 1015.8 |
| 20260507133539 | 45 | 250 | 8.7 | 13.0 | 0.00 | 0.04 | 0.00 | 93 | 1015.8 |
| 20260507133018 | 44 | 245 | 6.1 | 12.2 | 0.00 | 0.04 | 0.00 | 93 | 1015.8 |
| 20260507132530 | 43 | 236 | 7.8 | 14.8 | 0.00 | 0.04 | 0.00 | 93 | 1015.9 |
| 20260507132041 | 43 | 233 | 8.7 | 14.8 | 0.00 | 0.04 | 0.00 | 94 | 1016.0 |
| 20260507131523 | 42 | 242 | 7.0 | 13.9 | 0.00 | 0.04 | 0.00 | 94 | 1016.0 |
| 20260507131034 | 42 | 260 | 7.8 | 13.0 | 0.00 | 0.04 | 0.00 | 94 | 1016.1 |
| 20260507130544 | 41 | 225 | 6.1 | 13.0 | 0.00 | 0.04 | 0.00 | 94 | 1016.1 |
| 20260507130024 | 40 | 240 | 7.8 | 13.0 | 0.00 | 0.05 | 0.00 | 93 | 1016.1 |
| 20260507125530 | 40 | 241 | 6.1 | 14.8 | 0.00 | 0.05 | 0.00 | 93 | 1016.1 |
| 20260507125032 | 40 | 243 | 7.0 | 14.8 | 0.00 | 0.05 | 0.00 | 93 | 1016.0 |
| 20260507124523 | 39 | 221 | 6.1 | 12.2 | 0.00 | 0.05 | 0.00 | 93 | 1016.2 |
| 20260507124034 | 39 | 236 | 6.1 | 12.2 | 0.00 | 0.05 | 0.00 | 93 | 1016.1 |
| 20260507123535 | 39 | 248 | 6.1 | 12.2 | 0.00 | 0.05 | 0.00 | 92 | 1016.0 |
| 20260507123044 | 39 | 223 | 7.0 | 12.2 | 0.00 | 0.05 | 0.00 | 92 | 1016.0 |
| 20260507122533 | 39 | 229 | 6.1 | 10.4 | 0.00 | 0.05 | 0.00 | 92 | 1016.1 |
| 20260507122044 | 39 | 217 | 6.1 | 9.6 | 0.00 | 0.05 | 0.00 | 92 | 1016.0 |
| 20260507121524 | 39 | 231 | 6.1 | 12.2 | 0.00 | 0.05 | 0.00 | 92 | 1016.0 |
| 20260507121035 | 39 | 233 | 5.2 | 12.2 | 0.00 | 0.05 | 0.00 | 92 | 1016.2 |
| 20260507120526 | 39 | 236 | 7.0 | 10.4 | 0.00 | 0.05 | 0.00 | 92 | 1016.1 |
| 20260507120055 | 39 | 229 | 5.2 | 10.4 | 0.00 | 0.05 | 0.00 | 92 | 1016.1 |
| 20260507115536 | 39 | 229 | 6.1 | 10.4 | 0.00 | 0.05 | 0.00 | 92 | 1016.1 |
| 20260507115027 | 39 | 216 | 5.2 | 12.2 | 0.00 | 0.05 | 0.00 | 92 | 1016.2 |
| 20260507114538 | 39 | 271 | 6.1 | 10.4 | 0.00 | 0.05 | 0.00 | 92 | 1016.1 |
| 20260507114020 | 39 | 213 | 6.1 | 12.2 | 0.00 | 0.05 | 0.00 | 92 | 1016.1 |
| 20260507113527 | 39 | 215 | 7.0 | 12.2 | 0.00 | 0.05 | 0.00 | 92 | 1016.2 |
| 20260507113027 | 39 | 214 | 6.1 | 12.2 | 0.00 | 0.05 | 0.00 | 92 | 1016.2 |
| 20260507112517 | 39 | 236 | 7.0 | 12.2 | 0.00 | 0.05 | 0.00 | 92 | 1016.4 |
| 20260507112029 | 39 | 241 | 6.1 | 12.2 | 0.00 | 0.05 | 0.00 | 92 | 1016.4 |
| 20260507111531 | 39 | 234 | 6.1 | 12.2 | 0.00 | 0.05 | 0.00 | 92 | 1016.4 |
| 20260507111021 | 39 | 244 | 6.1 | 13.9 | 0.00 | 0.05 | 0.00 | 92 | 1016.3 |
| 20260507110532 | 39 | 240 | 6.1 | 10.4 | 0.00 | 0.05 | 0.00 | 92 | 1016.3 |
| 20260507110033 | 39 | 210 | 6.1 | 11.3 | 0.00 | 0.06 | 0.00 | 92 | 1016.3 |
| 20260507105523 | 39 | 223 | 6.1 | 10.4 | 0.00 | 0.06 | 0.00 | 92 | 1016.3 |
| 20260507105054 | 39 | 225 | 5.2 | 10.4 | 0.00 | 0.06 | 0.00 | 92 | 1016.2 |
| 20260507104544 | 39 | 211 | 5.2 | 9.6 | 0.00 | 0.06 | 0.00 | 92 | 1016.2 |
| 20260507104026 | 39 | 239 | 5.2 | 8.7 | 0.00 | 0.06 | 0.00 | 92 | 1016.3 |
| 20260507103537 | 39 | 230 | 5.2 | 11.3 | 0.00 | 0.06 | 0.00 | 92 | 1016.4 |
| 20260507103046 | 39 | 254 | 5.2 | 11.3 | 0.00 | 0.06 | 0.00 | 91 | 1016.5 |
| 20260507102528 | 39 | 261 | 4.3 | 11.3 | 0.00 | 0.06 | 0.00 | 91 | 1016.6 |
| 20260507102039 | 39 | 232 | 5.2 | 11.3 | 0.00 | 0.06 | 0.00 | 91 | 1016.7 |
| 20260507101520 | 39 | 236 | 3.5 | 9.6 | 0.00 | 0.06 | 0.00 | 91 | 1016.7 |
| 20260507101057 | 39 | 261 | 4.3 | 9.6 | 0.00 | 0.06 | 0.00 | 91 | 1016.7 |
| 20260507100607 | 39 | 250 | 5.2 | 9.6 | 0.00 | 0.06 | 0.00 | 91 | 1016.8 |
| 20260507100026 | 39 | 229 | 4.3 | 7.8 | 0.00 | 0.06 | 0.00 | 91 | 1016.8 |
| 20260507095537 | 39 | 216 | 4.3 | 7.8 | 0.00 | 0.06 | 0.00 | 91 | 1016.9 |
| 20260507095019 | 39 | 263 | 4.3 | 8.7 | 0.00 | 0.06 | 0.00 | 91 | 1016.9 |
| 20260507094531 | 39 | 236 | 4.3 | 8.7 | 0.00 | 0.06 | 0.00 | 91 | 1016.9 |
| 20260507094041 | 40 | 254 | 3.5 | 8.7 | 0.00 | 0.06 | 0.00 | 91 | 1016.9 |
| 20260507093522 | 40 | 296 | 2.6 | 7.8 | 0.00 | 0.06 | 0.00 | 91 | 1017.0 |
| 20260507093031 | 40 | 235 | 4.3 | 7.8 | 0.00 | 0.06 | 0.00 | 91 | 1017.0 |
| 20260507092543 | 40 | 228 | 5.2 | 8.7 | 0.00 | 0.06 | 0.00 | 91 | 1017.1 |
| 20260507092024 | 40 | 228 | 5.2 | 7.8 | 0.00 | 0.06 | 0.00 | 91 | 1017.1 |
| 20260507091556 | 40 | 244 | 4.3 | 7.8 | 0.00 | 0.06 | 0.00 | 91 | 1017.1 |
| 20260507091046 | 40 | 222 | 3.5 | 8.7 | 0.00 | 0.06 | 0.00 | 91 | 1017.2 |
| 20260507090536 | 40 | 235 | 4.3 | 8.7 | 0.00 | 0.06 | 0.00 | 91 | 1017.3 |
| 20260507090031 | 40 | 241 | 4.3 | 9.6 | 0.00 | 0.06 | 0.00 | 91 | 1017.3 |
| 20260507085523 | 40 | 226 | 4.3 | 9.6 | 0.00 | 0.06 | 0.00 | 91 | 1017.4 |
| 20260507085034 | 40 | 254 | 5.2 | 8.7 | 0.00 | 0.06 | 0.00 | 91 | 1017.4 |
| 20260507084606 | 40 | 227 | 3.5 | 7.8 | 0.00 | 0.06 | 0.00 | 90 | 1017.6 |
| 20260507084026 | 40 | 263 | 4.3 | 8.7 | 0.00 | 0.06 | 0.00 | 90 | 1017.6 |
| 20260507083538 | 41 | 227 | 5.2 | 7.8 | 0.00 | 0.06 | 0.00 | 91 | 1017.6 |
| 20260507083018 | 41 | 238 | 4.3 | 7.8 | 0.00 | 0.06 | 0.00 | 90 | 1017.6 |
| 20260507082528 | 41 | 229 | 4.3 | 6.1 | 0.00 | 0.06 | 0.00 | 90 | 1017.6 |
| 20260507082039 | 41 | 240 | 2.6 | 7.0 | 0.00 | 0.06 | 0.00 | 90 | 1017.7 |
| 20260507081521 | 41 | 252 | 1.7 | 7.0 | 0.00 | 0.06 | 0.00 | 90 | 1017.7 |
| 20260507081032 | 41 | 236 | 1.7 | 5.2 | 0.00 | 0.06 | 0.00 | 90 | 1017.8 |
| 20260507080543 | 41 | 250 | 2.6 | 5.2 | 0.00 | 0.06 | 0.00 | 90 | 1017.9 |
| 20260507080054 | 42 | 236 | 1.7 | 5.2 | 0.00 | 0.07 | 0.00 | 90 | 1017.9 |
| 20260507075604 | 42 | 260 | 1.7 | 6.1 | 0.00 | 0.07 | 0.00 | 90 | 1018.0 |
| 20260507075045 | 42 | 244 | 1.7 | 6.1 | 0.00 | 0.07 | 0.00 | 90 | 1018.1 |
| 20260507074530 | 42 | 236 | 2.6 | 6.1 | 0.00 | 0.07 | 0.00 | 90 | 1018.1 |
| 20260507074022 | 42 | 243 | 3.5 | 5.2 | 0.00 | 0.07 | 0.00 | 90 | 1018.2 |
| 20260507073552 | 42 | 244 | 3.5 | 6.1 | 0.00 | 0.07 | 0.00 | 90 | 1018.2 |
| 20260507073030 | 42 | 211 | 2.6 | 6.1 | 0.00 | 0.07 | 0.00 | 90 | 1018.3 |
| 20260507072522 | 42 | 200 | 2.6 | 7.0 | 0.00 | 0.07 | 0.00 | 90 | 1018.3 |
| 20260507072032 | 42 | 211 | 2.6 | 7.0 | 0.00 | 0.07 | 0.00 | 90 | 1018.4 |
| 20260507071605 | 42 | 254 | 2.6 | 7.0 | 0.00 | 0.07 | 0.00 | 90 | 1018.5 |
| 20260507071045 | 43 | 259 | 2.6 | 6.1 | 0.00 | 0.07 | 0.00 | 90 | 1018.6 |
| 20260507070537 | 43 | 244 | 1.7 | 7.0 | 0.00 | 0.07 | 0.00 | 89 | 1018.7 |
| 20260507070026 | 43 | 218 | 2.6 | 7.0 | 0.00 | 0.08 | 0.00 | 90 | 1018.8 |
| 20260507065527 | 43 | 281 | 2.6 | 7.0 | 0.00 | 0.08 | 0.00 | 89 | 1018.8 |
| 20260507065018 | 43 | 221 | 2.6 | 6.1 | 0.00 | 0.08 | 0.00 | 89 | 1018.8 |
| 20260507064529 | 43 | 279 | 2.6 | 5.2 | 0.00 | 0.08 | 0.00 | 89 | 1018.8 |
| 20260507064101 | 43 | 250 | 2.6 | 4.3 | 0.00 | 0.08 | 0.00 | 89 | 1018.9 |
| 20260507063608 | 43 | 266 | 1.7 | 4.3 | 0.00 | 0.08 | 0.00 | 89 | 1018.9 |
| 20260507063027 | 43 | 283 | 1.7 | 4.3 | 0.00 | 0.08 | 0.00 | 89 | 1018.9 |
| 20260507062518 | 43 | 309 | 1.7 | 4.3 | 0.00 | 0.08 | 0.00 | 89 | 1018.8 |
| 20260507062027 | 43 | 270 | 1.7 | 4.3 | 0.00 | 0.08 | 0.00 | 89 | 1019.0 |
| 20260507061559 | 43 | 275 | 1.7 | 4.3 | 0.00 | 0.08 | 0.00 | 88 | 1019.0 |
| 20260507061020 | 43 | 271 | 1.7 | 3.5 | 0.00 | 0.08 | 0.00 | 88 | 1019.0 |
| 20260507060550 | 43 | 271 | 0.9 | 3.5 | 0.00 | 0.08 | 0.00 | 88 | 1019.1 |
| 20260507060037 | 43 | 268 | 0.9 | 3.5 | 0.00 | 0.08 | 0.00 | 88 | 1019.1 |
| 20260507055519 | 43 | 273 | 1.7 | 3.5 | 0.00 | 0.08 | 0.00 | 88 | 1019.1 |
| 20260507055030 | 43 | 276 | 0.9 | 2.6 | 0.00 | 0.08 | 0.00 | 87 | 1019.1 |
| 20260507054521 | 43 | 276 | 0.9 | 2.6 | 0.00 | 0.08 | 0.00 | 87 | 1019.2 |
| 20260507054023 | 43 | 276 | 0.0 | 4.3 | 0.00 | 0.08 | 0.00 | 87 | 1019.1 |
| 20260507053534 | 43 | 276 | 1.7 | 4.3 | 0.00 | 0.08 | 0.00 | 87 | 1019.1 |
| 20260507053024 | 43 | 302 | 0.9 | 4.3 | 0.00 | 0.08 | 0.00 | 87 | 1019.1 |
| 20260507052526 | 44 | 287 | 1.7 | 4.3 | 0.00 | 0.08 | 0.00 | 87 | 1019.1 |
| 20260507052033 | 43 | 250 | 1.7 | 4.3 | 0.00 | 0.08 | 0.00 | 87 | 1019.1 |
| 20260507051543 | 43 | 271 | 1.7 | 4.3 | 0.00 | 0.08 | 0.00 | 86 | 1019.2 |
| 20260507051033 | 43 | 225 | 1.7 | 3.5 | 0.00 | 0.08 | 0.00 | 86 | 1019.2 |
| 20260507050533 | 43 | 254 | 1.7 | 3.5 | 0.00 | 0.08 | 0.00 | 85 | 1019.2 |
| 20260507050021 | 44 | 243 | 0.9 | 3.5 | 0.00 | 0.08 | 0.08 | 85 | 1019.2 |
| 20260507045524 | 44 | 245 | 1.7 | 4.3 | 0.00 | 0.08 | 0.08 | 85 | 1019.1 |
| 20260507045035 | 44 | 257 | 1.7 | 4.3 | 0.00 | 0.08 | 0.08 | 85 | 1019.3 |
| 20260507044525 | 44 | 256 | 2.6 | 3.5 | 0.00 | 0.08 | 0.08 | 84 | 1019.4 |
| 20260507044026 | 44 | 248 | 0.9 | 2.6 | 0.00 | 0.08 | 0.08 | 84 | 1019.4 |
| 20260507043537 | 44 | 282 | 0.9 | 2.6 | 0.00 | 0.08 | 0.08 | 84 | 1019.4 |
| 20260507043026 | 45 | 277 | 0.9 | 3.5 | 0.00 | 0.08 | 0.08 | 84 | 1019.2 |
| 20260507042528 | 45 | 254 | 0.9 | 3.5 | 0.00 | 0.08 | 0.08 | 83 | 1019.2 |
| 20260507042019 | 45 | 285 | 1.7 | 3.5 | 0.00 | 0.08 | 0.08 | 83 | 1019.3 |
| 20260507041531 | 45 | 284 | 0.9 | 3.5 | 0.00 | 0.08 | 0.08 | 83 | 1019.4 |
| 20260507041101 | 45 | 284 | 0.9 | 3.5 | 0.00 | 0.08 | 0.08 | 83 | 1019.4 |
| 20260507040522 | 45 | 271 | 0.9 | 3.5 | 0.00 | 0.08 | 0.08 | 83 | 1019.4 |
| 20260507040032 | 45 | 288 | 0.9 | 4.3 | 0.00 | 0.08 | 0.08 | 83 | 1019.4 |
| 20260507035528 | 46 | 288 | 1.7 | 4.3 | 0.00 | 0.08 | 0.08 | 82 | 1019.4 |
| 20260507035019 | 46 | 288 | 1.7 | 3.5 | 0.00 | 0.08 | 0.08 | 82 | 1019.4 |
| 20260507034550 | 46 | 268 | 1.7 | 5.2 | 0.00 | 0.08 | 0.08 | 81 | 1019.3 |
| 20260507034040 | 46 | 308 | 1.7 | 5.2 | 0.00 | 0.08 | 0.08 | 81 | 1019.3 |
| 20260507033522 | 46 | 278 | 1.7 | 3.5 | 0.00 | 0.08 | 0.08 | 80 | 1019.4 |
| 20260507033031 | 46 | 287 | 0.9 | 3.5 | 0.00 | 0.08 | 0.08 | 80 | 1019.3 |
| 20260507032541 | 47 | 291 | 1.7 | 3.5 | 0.00 | 0.08 | 0.08 | 80 | 1019.2 |
| 20260507032023 | 47 | 270 | 0.9 | 3.5 | 0.00 | 0.08 | 0.08 | 79 | 1019.0 |
| 20260507031534 | 47 | 267 | 0.9 | 3.5 | 0.00 | 0.08 | 0.08 | 79 | 1019.0 |
| 20260507031044 | 47 | 279 | 0.9 | 3.5 | 0.00 | 0.08 | 0.08 | 78 | 1019.0 |
| 20260507030526 | 47 | 279 | 1.7 | 3.5 | 0.00 | 0.08 | 0.08 | 78 | 1018.9 |
| 20260507030035 | 47 | 298 | 0.9 | 3.5 | 0.00 | 0.08 | 0.08 | 77 | 1018.8 |
| 20260507025546 | 48 | 299 | 0.9 | 2.6 | 0.00 | 0.08 | 0.08 | 76 | 1018.7 |
| 20260507025027 | 48 | 281 | 0.9 | 2.6 | 0.00 | 0.08 | 0.08 | 76 | 1018.6 |
| 20260507024538 | 48 | 281 | 0.9 | 2.6 | 0.00 | 0.08 | 0.08 | 76 | 1018.5 |
| 20260507024019 | 48 | 281 | 0.0 | 3.5 | 0.00 | 0.08 | 0.08 | 76 | 1018.4 |
| 20260507023555 | 48 | 281 | 0.9 | 3.5 | 0.00 | 0.08 | 0.08 | 76 | 1018.3 |
| 20260507023034 | 49 | 281 | 0.9 | 1.7 | 0.00 | 0.08 | 0.08 | 75 | 1018.3 |
| 20260507022524 | 49 | 281 | 0.0 | 0.9 | 0.00 | 0.08 | 0.08 | 75 | 1018.3 |
| 20260507022025 | 49 | 281 | 0.0 | 0.9 | 0.00 | 0.08 | 0.08 | 75 | 1018.2 |
| 20260507021536 | 49 | 281 | 0.9 | 0.9 | 0.00 | 0.08 | 0.08 | 75 | 1018.3 |
| 20260507021027 | 49 | 281 | 0.9 | 2.6 | 0.00 | 0.08 | 0.08 | 75 | 1018.2 |
| 20260507020529 | 49 | 281 | 0.9 | 2.6 | 0.00 | 0.08 | 0.08 | 75 | 1018.2 |
| 20260507020038 | 49 | 292 | 0.9 | 2.6 | 0.00 | 0.08 | 0.08 | 76 | 1018.2 |
| 20260507015529 | 50 | 281 | 0.9 | 2.6 | 0.00 | 0.08 | 0.08 | 76 | 1018.3 |
| 20260507015031 | 50 | 281 | 0.9 | 1.7 | 0.00 | 0.08 | 0.08 | 76 | 1018.3 |
| 20260507014521 | 50 | 281 | 0.9 | 3.5 | 0.00 | 0.08 | 0.08 | 75 | 1018.2 |
| 20260507014033 | 50 | 281 | 1.7 | 3.5 | 0.00 | 0.08 | 0.08 | 75 | 1018.3 |
| 20260507013534 | 50 | 287 | 0.9 | 2.6 | 0.00 | 0.08 | 0.08 | 75 | 1018.2 |
| 20260507013023 | 50 | 5 | 0.9 | 1.7 | 0.00 | 0.08 | 0.08 | 75 | 1018.1 |
| 20260507012524 | 50 | 5 | 0.9 | 2.6 | 0.00 | 0.08 | 0.08 | 75 | 1018.1 |
| 20260507012035 | 50 | 5 | 0.9 | 2.6 | 0.00 | 0.08 | 0.08 | 75 | 1018.0 |
| 20260507011526 | 50 | 5 | 0.9 | 2.6 | 0.00 | 0.08 | 0.08 | 74 | 1018.0 |
| 20260507011026 | 50 | 5 | 0.0 | 2.6 | 0.00 | 0.08 | 0.08 | 74 | 1017.9 |
| 20260507010553 | 50 | 5 | 0.9 | 3.5 | 0.00 | 0.08 | 0.08 | 73 | 1017.7 |
| 20260507010019 | 51 | 5 | 0.9 | 3.5 | 0.00 | 0.08 | 0.08 | 73 | 1017.8 |
| 20260507005530 | 51 | 5 | 1.7 | 2.6 | 0.00 | 0.08 | 0.08 | 73 | 1017.9 |
| 20260507005031 | 51 | 23 | 0.9 | 1.7 | 0.00 | 0.08 | 0.08 | 72 | 1017.9 |
| 20260507004520 | 51 | 23 | 0.0 | 2.6 | 0.00 | 0.08 | 0.08 | 72 | 1017.8 |
| 20260507004022 | 51 | 23 | 0.9 | 3.5 | 0.00 | 0.08 | 0.08 | 72 | 1017.8 |
| 20260507003534 | 51 | 33 | 0.9 | 3.5 | 0.00 | 0.08 | 0.08 | 72 | 1017.7 |
| 20260507003043 | 51 | 84 | 0.0 | 2.6 | 0.00 | 0.08 | 0.08 | 71 | 1017.8 |
| 20260507002532 | 51 | 84 | 0.9 | 2.6 | 0.00 | 0.08 | 0.08 | 71 | 1017.7 |
| 20260507002044 | 51 | 84 | 0.9 | 2.6 | 0.00 | 0.08 | 0.08 | 71 | 1017.6 |
| 20260507001524 | 51 | 84 | 0.9 | 3.5 | 0.00 | 0.08 | 0.08 | 71 | 1017.6 |
| 20260507001035 | 51 | 98 | 1.7 | 3.5 | 0.00 | 0.08 | 0.08 | 71 | 1017.5 |
| 20260507000544 | 51 | 360 | 0.9 | 1.7 | 0.00 | 0.08 | 0.08 | 70 | 1017.6 |
| 20260507000032 | 51 | 360 | 0.9 | 1.7 | 0.00 | 0.08 | 0.08 | 70 | 1017.7 |
| 20260506235534 | 51 | 360 | 0.0 | 2.6 | 0.00 | 0.08 | 0.08 | 70 | 1017.8 |
| 20260506235023 | 52 | 360 | 1.7 | 2.6 | 0.00 | 0.08 | 0.08 | 70 | 1017.8 |
| 20260506234521 | 52 | 360 | 1.7 | 4.3 | 0.00 | 0.08 | 0.08 | 70 | 1017.8 |
| 20260506234032 | 52 | 301 | 1.7 | 4.3 | 0.00 | 0.08 | 0.08 | 70 | 1017.7 |
| 20260506233543 | 52 | 360 | 2.6 | 4.3 | 0.00 | 0.08 | 0.08 | 69 | 1017.6 |
| 20260506233031 | 52 | 38 | 1.7 | 4.3 | 0.00 | 0.08 | 0.08 | 69 | 1017.3 |
| 20260506232542 | 52 | 42 | 1.7 | 4.3 | 0.00 | 0.08 | 0.08 | 68 | 1017.3 |
| 20260506232022 | 52 | 28 | 1.7 | 5.2 | 0.00 | 0.08 | 0.08 | 68 | 1017.4 |
| 20260506231533 | 52 | 198 | 2.6 | 5.2 | 0.00 | 0.08 | 0.08 | 68 | 1017.5 |
| 20260506231035 | 52 | 29 | 3.5 | 4.3 | 0.00 | 0.08 | 0.08 | 68 | 1017.6 |
| 20260506230526 | 52 | 74 | 2.6 | 5.2 | 0.00 | 0.08 | 0.08 | 69 | 1017.5 |
| 20260506230034 | 52 | 63 | 1.7 | 5.2 | 0.00 | 0.08 | 0.08 | 70 | 1017.4 |
| 20260506225536 | 52 | 31 | 2.6 | 6.1 | 0.00 | 0.08 | 0.08 | 71 | 1017.4 |
| 20260506225027 | 52 | 66 | 2.6 | 6.1 | 0.00 | 0.08 | 0.08 | 70 | 1017.4 |
| 20260506224538 | 52 | 96 | 2.6 | 5.2 | 0.00 | 0.08 | 0.08 | 70 | 1017.4 |
| 20260506224020 | 52 | 29 | 3.5 | 7.8 | 0.00 | 0.08 | 0.08 | 72 | 1017.4 |
| 20260506223529 | 52 | 40 | 3.5 | 7.8 | 0.00 | 0.08 | 0.08 | 72 | 1017.4 |
| 20260506223038 | 52 | 24 | 4.3 | 7.8 | 0.00 | 0.08 | 0.08 | 73 | 1017.5 |
| 20260506222519 | 51 | 24 | 4.3 | 7.8 | 0.00 | 0.08 | 0.08 | 74 | 1017.5 |
| 20260506222026 | 51 | 88 | 3.5 | 6.1 | 0.00 | 0.08 | 0.08 | 73 | 1017.5 |
| 20260506221538 | 51 | 43 | 1.7 | 6.1 | 0.00 | 0.08 | 0.08 | 73 | 1017.6 |
| 20260506221019 | 51 | 36 | 3.5 | 7.8 | 0.00 | 0.08 | 0.08 | 73 | 1017.6 |
| 20260506220530 | 51 | 15 | 3.5 | 7.8 | 0.00 | 0.08 | 0.08 | 74 | 1017.7 |
| 20260506220040 | 51 | 41 | 2.6 | 5.2 | 0.00 | 0.08 | 0.08 | 76 | 1017.7 |
| 20260506215520 | 51 | 33 | 1.7 | 7.0 | 0.00 | 0.08 | 0.08 | 75 | 1017.6 |
| 20260506215031 | 51 | 36 | 1.7 | 7.0 | 0.00 | 0.08 | 0.08 | 75 | 1017.6 |
| 20260506214522 | 51 | 41 | 3.5 | 6.1 | 0.00 | 0.08 | 0.08 | 76 | 1017.4 |
| 20260506214053 | 50 | 214 | 2.6 | 7.8 | 0.00 | 0.08 | 0.08 | 76 | 1017.5 |
| 20260506213534 | 50 | 111 | 4.3 | 7.8 | 0.00 | 0.08 | 0.08 | 75 | 1017.6 |
| 20260506213023 | 50 | 104 | 2.6 | 5.2 | 0.00 | 0.08 | 0.08 | 76 | 1017.6 |
| 20260506212534 | 50 | 30 | 3.5 | 7.8 | 0.00 | 0.08 | 0.08 | 76 | 1017.6 |
| 20260506212035 | 50 | 67 | 3.5 | 7.8 | 0.00 | 0.08 | 0.08 | 77 | 1017.8 |
| 20260506211545 | 50 | 93 | 2.6 | 9.6 | 0.00 | 0.08 | 0.08 | 78 | 1017.9 |
| 20260506211035 | 50 | 104 | 2.6 | 9.6 | 0.00 | 0.08 | 0.08 | 78 | 1018.0 |
| 20260506210542 | 50 | 36 | 4.3 | 7.8 | 0.00 | 0.08 | 0.08 | 79 | 1017.9 |
| 20260506210020 | 49 | 28 | 3.5 | 6.1 | 0.00 | 0.08 | 0.08 | 80 | 1017.9 |
| 20260506205531 | 49 | 65 | 1.7 | 6.1 | 0.00 | 0.08 | 0.08 | 80 | 1018.1 |
| 20260506205023 | 49 | 92 | 2.6 | 6.1 | 0.00 | 0.08 | 0.08 | 80 | 1018.0 |
| 20260506204524 | 49 | 44 | 3.5 | 8.7 | 0.00 | 0.08 | 0.08 | 80 | 1018.0 |
| 20260506204035 | 49 | 30 | 3.5 | 8.7 | 0.00 | 0.08 | 0.08 | 80 | 1018.1 |
| 20260506203546 | 49 | 67 | 1.7 | 7.8 | 0.00 | 0.08 | 0.08 | 81 | 1018.0 |
| 20260506203034 | 49 | 96 | 3.5 | 7.0 | 0.00 | 0.08 | 0.08 | 81 | 1018.1 |
| 20260506202606 | 49 | 17 | 0.9 | 8.7 | 0.00 | 0.08 | 0.08 | 82 | 1018.2 |
| 20260506202026 | 49 | 104 | 3.5 | 8.7 | 0.00 | 0.08 | 0.08 | 81 | 1018.2 |
| 20260506201537 | 49 | 107 | 4.3 | 11.3 | 0.00 | 0.08 | 0.08 | 82 | 1018.2 |
| 20260506201019 | 49 | 110 | 2.6 | 11.3 | 0.00 | 0.08 | 0.08 | 83 | 1018.2 |
| 20260506200529 | 49 | 105 | 5.2 | 9.6 | 0.00 | 0.08 | 0.08 | 85 | 1018.2 |
| 20260506200038 | 49 | 76 | 3.5 | 7.8 | 0.00 | 0.08 | 0.08 | 86 | 1018.1 |
| 20260506195519 | 48 | 106 | 3.5 | 7.8 | 0.00 | 0.08 | 0.08 | 88 | 1018.2 |
| 20260506195030 | 48 | 86 | 2.6 | 7.8 | 0.00 | 0.08 | 0.08 | 88 | 1018.2 |
| 20260506194537 | 48 | 71 | 2.6 | 7.0 | 0.00 | 0.08 | 0.08 | 89 | 1018.2 |
| 20260506194040 | 48 | 81 | 1.7 | 4.3 | 0.00 | 0.08 | 0.08 | 89 | 1018.3 |
| 20260506193530 | 47 | 37 | 1.7 | 7.8 | 0.00 | 0.08 | 0.08 | 89 | 1018.3 |
| 20260506193019 | 47 | 77 | 1.7 | 7.8 | 0.00 | 0.08 | 0.08 | 90 | 1018.3 |
| 20260506192519 | 47 | 26 | 3.5 | 7.0 | 0.00 | 0.08 | 0.08 | 91 | 1018.2 |
| 20260506192027 | 47 | 92 | 1.7 | 4.3 | 0.00 | 0.08 | 0.08 | 92 | 1018.3 |
| 20260506191519 | 46 | 65 | 1.7 | 7.0 | 0.00 | 0.08 | 0.08 | 93 | 1018.4 |
| 20260506191019 | 46 | 40 | 4.3 | 7.0 | 0.00 | 0.08 | 0.08 | 93 | 1018.4 |
| 20260506190531 | 46 | 96 | 3.5 | 6.1 | 0.00 | 0.08 | 0.08 | 93 | 1018.5 |
| 20260506190039 | 46 | 262 | 2.6 | 7.0 | 0.00 | 0.08 | 0.08 | 93 | 1018.6 |
| 20260506185529 | 46 | 92 | 3.5 | 7.0 | 0.00 | 0.08 | 0.08 | 93 | 1018.6 |
| 20260506185030 | 45 | 53 | 2.6 | 7.8 | 0.00 | 0.08 | 0.08 | 94 | 1018.6 |
| 20260506184522 | 45 | 94 | 3.5 | 7.8 | 0.00 | 0.08 | 0.08 | 93 | 1018.7 |
| 20260506184052 | 45 | 105 | 2.6 | 6.1 | 0.00 | 0.08 | 0.08 | 94 | 1018.8 |
| 20260506183542 | 45 | 102 | 1.7 | 6.1 | 0.00 | 0.08 | 0.08 | 94 | 1018.9 |
| 20260506183016 | 45 | 74 | 2.6 | 7.8 | 0.00 | 0.08 | 0.08 | 94 | 1019.0 |
| 20260506182548 | 45 | 106 | 4.3 | 7.8 | 0.00 | 0.08 | 0.08 | 94 | 1019.0 |
| 20260506182037 | 45 | 119 | 4.3 | 7.0 | 0.00 | 0.08 | 0.08 | 94 | 1018.9 |
| 20260506181527 | 45 | 103 | 2.6 | 7.8 | 0.00 | 0.08 | 0.08 | 94 | 1018.9 |
| 20260506181027 | 45 | 107 | 2.6 | 7.8 | 0.00 | 0.08 | 0.08 | 94 | 1019.0 |
| 20260506180538 | 45 | 38 | 3.5 | 7.8 | 0.00 | 0.08 | 0.08 | 95 | 1019.1 |
| 20260506180027 | 45 | 30 | 2.6 | 7.0 | 0.00 | 0.08 | 0.08 | 94 | 1019.1 |
| 20260506175529 | 45 | 26 | 2.6 | 7.8 | 0.00 | 0.08 | 0.08 | 95 | 1019.1 |
| 20260506175019 | 44 | 29 | 2.6 | 8.7 | 0.00 | 0.08 | 0.08 | 95 | 1019.0 |
| 20260506174521 | 44 | 34 | 3.5 | 8.7 | 0.00 | 0.08 | 0.08 | 95 | 1019.0 |
| 20260506174103 | 45 | 65 | 2.6 | 6.1 | 0.00 | 0.08 | 0.08 | 95 | 1019.0 |
| 20260506173523 | 45 | 107 | 2.6 | 6.1 | 0.00 | 0.08 | 0.08 | 95 | 1019.0 |
| 20260506173032 | 45 | 65 | 2.6 | 7.0 | 0.00 | 0.08 | 0.08 | 95 | 1018.9 |
| 20260506172540 | 44 | 68 | 2.6 | 7.8 | 0.00 | 0.08 | 0.08 | 95 | 1018.9 |
| 20260506172020 | 44 | 75 | 4.3 | 7.8 | 0.00 | 0.08 | 0.08 | 95 | 1019.0 |
| 20260506171531 | 44 | 44 | 2.6 | 7.8 | 0.00 | 0.08 | 0.08 | 95 | 1018.9 |
| 20260506171029 | 44 | 40 | 4.3 | 8.7 | 0.00 | 0.08 | 0.08 | 95 | 1019.0 |
| 20260506170520 | 44 | 19 | 3.5 | 8.7 | 0.00 | 0.08 | 0.08 | 95 | 1019.0 |
| 20260506170029 | 44 | 31 | 4.3 | 8.7 | 0.00 | 0.08 | 0.08 | 95 | 1019.0 |
| 20260506165530 | 44 | 20 | 3.5 | 5.2 | 0.00 | 0.08 | 0.08 | 95 | 1019.1 |
| 20260506165020 | 43 | 59 | 3.5 | 8.7 | 0.00 | 0.08 | 0.08 | 95 | 1019.1 |
| 20260506164522 | 43 | 43 | 2.6 | 8.7 | 0.00 | 0.08 | 0.08 | 95 | 1019.0 |
| 20260506164033 | 43 | 52 | 6.1 | 10.4 | 0.00 | 0.08 | 0.08 | 95 | 1019.0 |
| 20260506163525 | 43 | 34 | 5.2 | 10.4 | 0.00 | 0.08 | 0.08 | 95 | 1018.9 |
| 20260506163034 | 43 | 57 | 6.1 | 9.6 | 0.00 | 0.08 | 0.08 | 95 | 1018.7 |
| 20260506162545 | 43 | 36 | 3.5 | 8.7 | 0.00 | 0.08 | 0.08 | 95 | 1018.6 |
| 20260506162047 | 43 | 32 | 4.3 | 10.4 | 0.01 | 0.08 | 0.08 | 95 | 1018.5 |
| 20260506161536 | 43 | 98 | 4.3 | 10.4 | 0.01 | 0.08 | 0.08 | 95 | 1018.5 |
| 20260506161018 | 43 | 78 | 3.5 | 11.3 | 0.01 | 0.08 | 0.08 | 95 | 1018.6 |
| 20260506160558 | 43 | 28 | 4.3 | 11.3 | 0.01 | 0.08 | 0.08 | 95 | 1018.7 |
| 20260506160032 | 43 | 34 | 4.3 | 10.4 | 0.01 | 0.08 | 0.08 | 95 | 1018.6 |
| 20260506155523 | 43 | 42 | 5.2 | 10.4 | 0.01 | 0.08 | 0.08 | 95 | 1018.5 |
| 20260506155020 | 43 | 64 | 6.1 | 10.4 | 0.01 | 0.08 | 0.08 | 95 | 1018.4 |
| 20260506154531 | 43 | 28 | 5.2 | 10.4 | 0.01 | 0.08 | 0.08 | 95 | 1018.4 |